Weather History for Russellville, AR

Change the Weather History Date:

Friday, January 4, 2013

  Actual Average (KHOT) Record (KHOT)
Temperature  
Mean Temperature 34 °F -  
Max Temperature 46 °F 49 °F 77 °F (1997)
Min Temperature 21 °F 29 °F 8 °F (1959)
Degree Days  
Heating Degree Days 32    
Moisture  
Dew Point 25 °F    
Average Humidity 77    
Maximum Humidity 92    
Minimum Humidity 40    
Precipitation  
Precipitation 0.00 in - - ()
Sea Level Pressure  
Sea Level Pressure 30.43 in    
Wind  
Wind Speed 1 mph (WSW)    
Max Wind Speed 6 mph    
Max Gust Speed -    
Visibility 8 miles    
Events      
Averages and records for this station are not official NWS values.
T = Trace of Precipitation, MM = Missing Value Source: NWS Daily Summary

Daily Weather History Graph

Daily Weather History Graph

Search for Another Location

Airport:

Trip Planner

Search our weather history database for the weather conditions in past years. The results will help you decide how hot, cold, wet, or windy it might be!

Date:

Astronomy

Jan. 04, 2013 Rise Set
Actual Time 7:21 AM CST 5:13 PM CST
Civil Twilight 6:53 AM CST 5:41 PM CST
Nautical Twilight 6:21 AM CST 6:13 PM CST
Astronomical Twilight 5:51 AM CST 6:44 PM CST
Moon No Moon Rise 11:21 AM CST (1/4)
Length of Visible Light 10h 48m
Length of Day
9h 52m
Waning Gibbous, 55% of the Moon is Illuminated
Jan 4
Waning Gibbous
Jan 4
Last Quarter
Jan 11
New
Jan 18
First Quarter
Jan 26
Full

Hourly Weather History & Observations

Time (CST) Temp. Windchill Dew Point Humidity Pressure Visibility Wind Dir Wind Speed Gust Speed Precip Events Conditions
12:53 AM 25.0 °F - 23.0 °F 92% 30.43 in 5.0 mi Calm Calm - N/A   Clear
1:53 AM 25.0 °F - 21.9 °F 88% 30.43 in 6.0 mi Calm Calm - N/A   Clear
2:53 AM 24.1 °F - 21.0 °F 88% 30.43 in 5.0 mi Calm Calm - N/A   Clear
3:53 AM 23.0 °F - 19.9 °F 88% 30.43 in 5.0 mi Calm Calm - N/A   Clear
4:53 AM 23.0 °F - 19.9 °F 88% 30.44 in 6.0 mi Calm Calm - N/A   Clear
7:53 AM 21.9 °F - 19.0 °F 89% 30.50 in 5.0 mi Calm Calm - N/A   Clear
8:53 AM 28.0 °F - 26.1 °F 92% 30.50 in 5.0 mi Calm Calm - N/A   Clear
9:53 AM 33.1 °F - 30.0 °F 89% 30.51 in 5.0 mi Calm Calm - N/A   Clear
10:53 AM 35.1 °F - 30.0 °F 82% 30.51 in 7.0 mi Calm Calm - N/A   Clear
11:53 AM 39.0 °F - 30.9 °F 73% 30.49 in 10.0 mi Calm Calm - N/A   Clear
12:53 PM 44.1 °F 41.5 °F 26.1 °F 49% 30.44 in 10.0 mi Variable 4.6 mph - N/A   Clear
1:53 PM 44.1 °F 42.5 °F 23.0 °F 43% 30.42 in 10.0 mi SW 3.5 mph - N/A   Partly Cloudy
2:53 PM 46.0 °F 43.1 °F 23.0 °F 40% 30.40 in 10.0 mi Variable 5.8 mph - N/A   Overcast
3:53 PM 46.0 °F 44.8 °F 24.1 °F 42% 30.39 in 10.0 mi Variable 3.5 mph - N/A   Clear
4:53 PM 44.1 °F 41.5 °F 25.0 °F 47% 30.40 in 10.0 mi WNW 4.6 mph - N/A   Mostly Cloudy
5:53 PM 34.0 °F - 27.0 °F 75% 30.41 in 10.0 mi Calm Calm - N/A   Clear
6:53 PM 30.0 °F - 25.0 °F 82% 30.41 in 10.0 mi Calm Calm - N/A   Clear
7:53 PM 28.9 °F - 25.0 °F 85% 30.42 in 10.0 mi Calm Calm - N/A   Clear
8:53 PM 28.0 °F - 25.0 °F 88% 30.41 in 10.0 mi Calm Calm - N/A   Clear
9:53 PM 27.0 °F - 24.1 °F 89% 30.41 in 10.0 mi Calm Calm - N/A   Clear
10:53 PM 30.9 °F - 27.0 °F 85% 30.38 in 10.0 mi Calm Calm - N/A   Clear
11:53 PM 30.9 °F - 28.0 °F 89% 30.37 in 10.0 mi Calm Calm - N/A   Partly Cloudy